327  
ASUS41 KCLE 241202  
RWRCLE  
OHIO REGIONAL WEATHER ROUNDUP  
NATIONAL WEATHER SERVICE CLEVELAND, OH  
800 AM EDT FRI MAY 24 2019  
 
NOTE: "FAIR" INDICATES FEW OR NO CLOUDS BELOW 12,000 FEET WITH NO  
SIGNIFICANT WEATHER AND/OR S TO VISIBILITY
.  
 
OHZ001>008-015>018-024>027-034-035-043-044-241300-  
NORTHWEST OHIO  
 
CITY SKY/WX TMP DP RH WIND PRES REMARKS
 
DEFIANCE FAIR 60 54 80 CALM 30.13S  
FINDLAY FAIR 61 54 77 CALM 30.13S  
TOLEDO EXPRESS FAIR 60 52 74 CALM 30.14R  
TOLEDO EXEC FAIR 62 51 67 CALM 30.14S  
LIMA FAIR 61 54 77 CALM 30.13F  

 
 
OHZ009>014-019>023-028>033-038-089-241300-  
NORTHEAST OHIO  
 
CITY SKY/WX TMP DP RH WIND PRES REMARKS
 
CLE-HOPKINS FAIR 61 52 72 W3 30.16R  
CLE-LAKEFRONT FAIR 59 52 77 W6 30.13R  
CUY CO. ARPT SUNNY 57 52 82 W5 30.14R  
LORAIN-ELYRIA FAIR 60 48 64 N5 30.14S  
ASHTABULA FAIR 56 52 86 CALM 30.13R  
AKRON-CANTON FAIR 60 51 72 SW5 30.14S  
WOOSTER FAIR 60 52 74 CALM 30.15S  
MANSFIELD FAIR 61 52 72 N6 30.15S  
YOUNGSTOWN FAIR 58 51 78 CALM 30.13R  

 
 
OHZ042-051>053-060>062-070>072-077>081-241300-  
SOUTHWEST OHIO  
 
CITY SKY/WX TMP DP RH WIND PRES REMARKS
 
CINC-COVINGTON PTSUNNY 72 67 84 SE3 30.14R  
CINC-LUNKEN FOG 68 68 100 CALM 30.14R VSB 1/4  
HAMILTON FAIR 70 67 90 CALM 30.14R  
DAYTON FAIR 66 60 81 NE5 30.15R  
WRIGHT-PAT AFB MOSUNNY 64 64 97 CALM 30.14R  
DAYTON GENERAL FAIR 69 60 73 E7 30.13S  
WILMINGTON FAIR 66 59 78 E6 30.15R  

 
 
OHZ036-037-039>041-045>050-054>059-063>069-073>076-082>088-241300-  
CENTRAL AND SOUTHEAST OHIO  
 
CITY SKY/WX TMP DP RH WIND PRES REMARKS
 
COLUMBUS FAIR 64 56 75 CALM 30.15R  
OSU AIRPORT FAIR 63 58 83 CALM 30.15R  
BOLTON FIELD SUNNY 63 59 88 CALM 30.16R  
RICKENBACK AFB FAIR 63 59 87 CALM 30.15R  
NEWARK FAIR 62 58 86 CALM 30.15R  
MARION FAIR 60 54 80 CALM 30.15S HAZE  
LANCASTER FAIR 63 60 90 CALM 30.16R  
ZANESVILLE FAIR 64 56 75 CALM 30.15R  
NEW PHILLY NOT AVBL  

 
 
 
CLICK HERE TO GO TO PREVIOUS BULLETINS.

The Nexlab OH Page
The Nexlab PA Page Main Text Page